(105652) = 2000 SU24

Discovered at Bisei SG Center on 2000-09-26 by BATTeRS.

Orbit

Orbit type: Main Belt

Note: WebGL enabled browser required.

epoch2024-03-31.0
epoch JD2460400.5
perihelion date2021-10-26.76051
perihelion JD2459514.26051
argument of perihelion (°)142.24713
ascending node (°)212.99709
inclination (°)9.51520
eccentricity0.1348435
perihelion distance (AU)2.6422462
Tisserand w.r.t. Jupiter3.2
ΔV w.r.t. Earth (km/sec)10.6
semimajor axis (AU)3.0540673
mean anomaly (°)163.65801
mean daily motion (°/day)0.18466570
aphelion distance (AU)3.466
period (years)5.34
P-vector [x]0.99196969
P-vector [y]-0.10984522
P-vector [z]0.06269093
Q-vector [x]0.08883298
Q-vector [y]0.95794349
Q-vector [z]0.27286073
absolute magnitude14.88
phase slope0.15
uncertainty0
referenceE2024-GI3
observations used1156
oppositions18
arc length (days)8648
first opposition used2000
last opposition used2024
residual rms (arc-secs)0.64
perturbers coarse indicatorM-v
perturbers precise indicator003Ek
first observation date used2000-08-08.0
last observation date used2024-04-12.0
computer nameMPCLINUX
JD of orbit computation2456937.303950
perihelion JD uncertainty (days)1.0424E-04
argument of perihelion uncertainty (°)2.7546E-05
ascending node uncertainty (°)2.1803E-05
inclination uncertainty (°)4.7116E-06
eccentricity uncertainty 4.1106E-08
perihelion distance uncertainty (AU)1.2381E-07
Minimum Orbit Intersection Distances (in AU)
for orbit epoch: 2460400.5, reference: E2024-GI3
Mercury2.27933
Venus1.92758
Earth1.64627
Mars1.25835
Jupiter2.03901
Saturn5.91216
Uranus15.0118
Neptune26.9756

Observations

1130 total observations over interval: 2000 08 08.10157 – 2024 03 05.23565
These data are available for download (format description).

Date (UT) J2000 RA J2000 Dec Magn Location Ref
2000 08 08.10157 01 36 51.73 +15 44 37.7 19.0   184 – Valmeca Observatory, Puimichel MPS 21157
2000 08 08.10642 01 36 51.88 +15 44 38.0 19.0   184 – Valmeca Observatory, Puimichel MPS 21157
2000 08 08.13112 01 36 52.60 +15 44 41.1 19.0   184 – Valmeca Observatory, Puimichel MPS 21157
2000 09 23.33309 01 36 45.89 +14 21 16.2 19.0   704 – Lincoln Laboratory ETS, New Mexico MPS 19772
2000 09 23.34759 01 36 45.46 +14 21 10.6 19.7   704 – Lincoln Laboratory ETS, New Mexico MPS 19772
2000 09 23.39088 01 36 44.02 +14 20 55.5 19.1   704 – Lincoln Laboratory ETS, New Mexico MPS 19772
2000 09 25.33516 01 35 41.61 +14 09 12.6 18.4 R 699 – Lowell Observatory-LONEOS MPS 30123
2000 09 25.35288 01 35 40.97 +14 09 05.2   699 – Lowell Observatory-LONEOS MPS 30123
2000 09 25.37050 01 35 40.35 +14 08 58.6   699 – Lowell Observatory-LONEOS MPS 30123
2000 09 25.38818 01 35 39.69 +14 08 52.5   699 – Lowell Observatory-LONEOS MPS 30123
2000 09 25.50509 01 35 35.84 +14 08 09.6 19.3   608 – Haleakala-AMOS MPS 19772
2000 09 25.51533 01 35 35.47 +14 08 05.9 19.2   608 – Haleakala-AMOS MPS 19772
2000 09 25.52583 01 35 35.10 +14 08 01.9 19.0   608 – Haleakala-AMOS MPS 19772
2000 09 26.70566 01 34 55.10 +14 00 33.3 18.6 V 300 – Bisei Spaceguard Center-BATTeRS MPS 19772
2000 09 26.73240 01 34 54.14 +14 00 23.8 18.7 V 300 – Bisei Spaceguard Center-BATTeRS MPS 19772
2000 09 27.59948 01 34 24.09 +13 54 47.1 18.1 V 300 – Bisei Spaceguard Center-BATTeRS MPS 19772
2000 09 27.62677 01 34 23.03 +13 54 36.0 18.1 V 300 – Bisei Spaceguard Center-BATTeRS MPS 19772
2000 09 28.27587 01 33 59.99 +13 50 20.5 18.3   704 – Lincoln Laboratory ETS, New Mexico MPS 19772
2000 09 28.29093 01 33 59.45 +13 50 14.5 18.9   704 – Lincoln Laboratory ETS, New Mexico MPS 19772
2000 09 28.30598 01 33 58.90 +13 50 09.2 19.1   704 – Lincoln Laboratory ETS, New Mexico MPS 19772
2000 09 28.32105 01 33 58.21 +13 50 01.4 19.0   704 – Lincoln Laboratory ETS, New Mexico MPS 19772
2000 09 28.33609 01 33 57.72 +13 49 56.5 19.2   704 – Lincoln Laboratory ETS, New Mexico MPS 19772
2000 10 02.39037 01 31 25.22 +13 21 53.1 19.4   704 – Lincoln Laboratory ETS, New Mexico MPS 19772
2000 10 02.40585 01 31 24.58 +13 21 46.8 19.0   704 – Lincoln Laboratory ETS, New Mexico MPS 19772
2000 10 02.42077 01 31 23.95 +13 21 40.1 19.2   704 – Lincoln Laboratory ETS, New Mexico MPS 19772
2000 10 02.43578 01 31 23.37 +13 21 34.3 19.3   704 – Lincoln Laboratory ETS, New Mexico MPS 19772
2000 10 03.33457 01 30 48.20 +13 15 05.1 18.1   704 – Lincoln Laboratory ETS, New Mexico MPS 19772
2000 10 03.33837 01 30 48.07 +13 15 02.7 18.7   704 – Lincoln Laboratory ETS, New Mexico MPS 19772
2000 10 03.34963 01 30 47.55 +13 14 58.1 17.5   704 – Lincoln Laboratory ETS, New Mexico MPS 19772
2000 10 03.35340 01 30 47.41 +13 14 56.5 18.4   704 – Lincoln Laboratory ETS, New Mexico MPS 19772
2000 10 03.36523 01 30 46.88 +13 14 51.3 17.6   704 – Lincoln Laboratory ETS, New Mexico MPS 19772
2000 10 03.36834 01 30 46.81 +13 14 50.1 18.5   704 – Lincoln Laboratory ETS, New Mexico MPS 19772
2000 10 03.38089 01 30 46.28 +13 14 44.0 18.0   704 – Lincoln Laboratory ETS, New Mexico MPS 19772
2000 10 03.38329 01 30 46.16 +13 14 43.2 19.1   704 – Lincoln Laboratory ETS, New Mexico MPS 19772
2000 10 03.39830 01 30 45.55 +13 14 36.6 19.4   704 – Lincoln Laboratory ETS, New Mexico MPS 19772
2000 10 04.34697 01 30 07.68 +13 07 38.4 18.7   704 – Lincoln Laboratory ETS, New Mexico MPS 19772
2000 10 04.34820 01 30 07.65 +13 07 37.7 18.5   704 – Lincoln Laboratory ETS, New Mexico MPS 19772
2000 10 04.36243 01 30 07.05 +13 07 31.6 19.1   704 – Lincoln Laboratory ETS, New Mexico MPS 19772
2000 10 04.36424 01 30 06.97 +13 07 30.9 18.6   704 – Lincoln Laboratory ETS, New Mexico MPS 19772
2000 10 04.39279 01 30 05.74 +13 07 17.8 19.1   704 – Lincoln Laboratory ETS, New Mexico MPS 19772
2000 10 04.39565 01 30 05.67 +13 07 16.7 18.4   704 – Lincoln Laboratory ETS, New Mexico MPS 19772
2000 10 06.32094 01 28 47.34 +12 52 49.5 18.0 R 699 – Lowell Observatory-LONEOS MPS 19772
2000 10 06.36288 01 28 45.52 +12 52 29.7   699 – Lowell Observatory-LONEOS MPS 19772
2000 10 06.40479 01 28 43.71 +12 52 11.1   699 – Lowell Observatory-LONEOS MPS 19772
2000 10 06.44674 01 28 41.89 +12 51 51.6   699 – Lowell Observatory-LONEOS MPS 19772
2000 10 24.26992 01 16 10.16 +10 27 36.1 18.4   704 – Lincoln Laboratory ETS, New Mexico MPS 21157
2000 10 24.31098 01 16 08.46 +10 27 15.7 18.4   704 – Lincoln Laboratory ETS, New Mexico MPS 21157
2000 10 24.32469 01 16 07.86 +10 27 08.8 18.3   704 – Lincoln Laboratory ETS, New Mexico MPS 21157
2000 10 31.22976 01 11 47.57 +09 32 07.6 19.3   704 – Lincoln Laboratory ETS, New Mexico MPS 21157
2000 10 31.24375 01 11 47.08 +09 32 00.7 19.7   704 – Lincoln Laboratory ETS, New Mexico MPS 21157
2000 10 31.25771 01 11 46.59 +09 31 54.4 19.5   704 – Lincoln Laboratory ETS, New Mexico MPS 21157
2000 10 31.27195 01 11 46.05 +09 31 47.5 19.2   704 – Lincoln Laboratory ETS, New Mexico MPS 21157
2000 11 02.21144 01 10 40.22 +09 17 00.8 19.3   704 – Lincoln Laboratory ETS, New Mexico MPS 21157
2000 11 02.23897 01 10 39.26 +09 16 48.4 19.3   704 – Lincoln Laboratory ETS, New Mexico MPS 21157
2000 11 02.25254 01 10 38.83 +09 16 40.9 19.7   704 – Lincoln Laboratory ETS, New Mexico MPS 21157
2000 11 02.26662 01 10 38.33 +09 16 35.9 19.1   704 – Lincoln Laboratory ETS, New Mexico MPS 21157
2000 11 18.15782 01 04 20.35 +07 33 59.0 19.3 V 691 – Steward Observatory, Kitt Peak-Spacewatch MPS 22468
2000 11 18.18795 01 04 19.89 +07 33 49.4 19.4 V 691 – Steward Observatory, Kitt Peak-Spacewatch MPS 22468
2000 11 18.21743 01 04 19.43 +07 33 40.3 19.4 V 691 – Steward Observatory, Kitt Peak-Spacewatch MPS 22468
2000 11 20.11707 01 03 56.34 +07 24 05.3 18.9 R 699 – Lowell Observatory-LONEOS MPS 22468
2000 11 20.14042 01 03 56.08 +07 23 57.0   699 – Lowell Observatory-LONEOS MPS 22468
2000 11 20.16381 01 03 55.75 +07 23 50.2   699 – Lowell Observatory-LONEOS MPS 22468
2000 11 20.18723 01 03 55.50 +07 23 43.6   699 – Lowell Observatory-LONEOS MPS 22468
2003 03 28.23880 11 45 18.34 -06 06 54.6 20.0 V 691 – Steward Observatory, Kitt Peak-Spacewatch MPS 75784
2003 03 28.26635 11 45 17.19 -06 06 43.3 19.9 V 691 – Steward Observatory, Kitt Peak-Spacewatch MPS 75784
2003 03 28.29306 11 45 16.07 -06 06 32.8 19.9 V 691 – Steward Observatory, Kitt Peak-Spacewatch MPS 75784
2003 04 04.24949 11 40 43.12 -05 20 37.1 19.2 R 699 – Lowell Observatory-LONEOS MPS 75784
2003 04 04.26200 11 40 42.67 -05 20 34.8   699 – Lowell Observatory-LONEOS MPS 75784
2003 04 04.27917 11 40 41.96 -05 20 28.2   699 – Lowell Observatory-LONEOS MPS 75784
2003 04 04.29077 11 40 41.66 -05 20 23.8   699 – Lowell Observatory-LONEOS MPS 75784
2004 05 15.30165 16 27 02.84 -14 39 17.3 19.4   704 – Lincoln Laboratory ETS, New Mexico MPS 107307
2004 05 15.31141 16 27 02.24 -14 39 14.4 19.4   704 – Lincoln Laboratory ETS, New Mexico MPS 107307
2004 05 15.32113 16 27 01.95 -14 39 10.9 19.6   704 – Lincoln Laboratory ETS, New Mexico MPS 107307
2004 05 15.33073 16 27 01.41 -14 39 08.4 19.4   704 – Lincoln Laboratory ETS, New Mexico MPS 107307
2004 05 15.34030 16 27 00.97 -14 39 06.1 19.3   704 – Lincoln Laboratory ETS, New Mexico MPS 107307
2004 05 18.32479 16 24 46.05 -14 25 33.5 19.5   704 – Lincoln Laboratory ETS, New Mexico MPS 107307
2004 05 18.34338 16 24 45.09 -14 25 26.8 19.6   704 – Lincoln Laboratory ETS, New Mexico MPS 107307
2004 05 18.35278 16 24 44.70 -14 25 25.6 19.5   704 – Lincoln Laboratory ETS, New Mexico MPS 107307
2004 05 18.36237 16 24 44.33 -14 25 23.5 20.1   704 – Lincoln Laboratory ETS, New Mexico MPS 107307
2004 05 22.29322 16 21 40.70 -14 07 48.1 19.3   704 – Lincoln Laboratory ETS, New Mexico MPS 108055
2004 05 22.30199 16 21 40.26 -14 07 45.8 19.5   704 – Lincoln Laboratory ETS, New Mexico MPS 108055
2004 05 22.31169 16 21 39.69 -14 07 43.6 19.2   704 – Lincoln Laboratory ETS, New Mexico MPS 108055
2004 06 11.31611 16 06 05.91 -12 49 17.6 18.9   644 – Palomar Mountain/NEAT MPS 108648
2004 06 11.33809 16 06 04.94 -12 49 13.3 19.1   644 – Palomar Mountain/NEAT MPS 108648
2004 06 11.35859 16 06 04.04 -12 49 09.3 19.1   644 – Palomar Mountain/NEAT MPS 108648
